Tracking 29892 objects as of 21-Nov-2024
HD Live streaming from Space Station
objects crossing your sky now

CZ-6A DEB

Track CZ-6A DEB now!
10-day predictions


NORAD ID: 54919
Int'l Code: 2022-151RG
Perigee: 654.2 km
Apogee: 790.5 km
Inclination: 98.7 °
Period: 99.1 minutes
Semi major axis: 7093 km
RCS: Unknown
Launch date: November 11, 2022
Source: People's Republic of China (PRC)
Launch site: Taiyaun Space Center, China (TSC)

Note: This is SATELLITE DEBRIS
Your satellite tracking list
Your tracking list is empty




NASA's NSSDC Master Catalog

Two Line Element Set (TLE):
1 54919U 22151RG  24325.93027000  .00019577  00000-0  44447-2 0  9990
2 54919  98.6616 353.4575 0096094 257.1967 101.8477 14.53206084102962
Source of the keplerian elements: AFSPC